User: anonymous   Login
Location: Caltech
(34.1382°N, 118.1253°W)
Time: 08:35:09
(UTC-08:00)
Language:

Iridium 94 - Orbit

View from above orbital plane
View from above orbital plane
View from above satellite
View from above satellite

Ground track
Ground track

The orbit data is extracted from the following two-line orbital elements,

1 27374U 02005C   16339.56628219  .00000010  00000-0 -35608-5 0  9990
2 27374  86.3940 337.0910 0001957  67.8619  48.3183 14.34217729788052
Epoch (UTC): 04 December 2016 13:35:26
Eccentricity: 0.0001957
inclination: 86.3940°
perigee height: 776 km
apogee height: 779 km
right ascension of ascending node: 337.0910°
argument of perigee: 67.8619°
revolutions per day: 14.34217729
mean anomaly at epoch: 48.3183°
orbit number at epoch: 78805

The dashed part of the orbit path shows where the satellite is in the earth's shadow,  

DLR